EST,Max TemperatureF,Mean TemperatureF,Min TemperatureF,Max Dew PointF,MeanDew PointF,Min DewpointF,Max Humidity, Mean Humidity, Min Humidity, Max Sea Level PressureIn, Mean Sea Level PressureIn, Min Sea Level PressureIn, Max VisibilityMiles, Mean VisibilityMiles, Min VisibilityMiles, Max Wind SpeedMPH, Mean Wind SpeedMPH, Max Gust SpeedMPH,PrecipitationIn, CloudCover, Events, WindDirDegrees
2014-1-1,18,16,13,13,10,7,80,77,73,30.33,30.26,30.18,10,4,1,15,8,18,0.25,8,Snow,70
2014-1-2,15,6,-3,9,4,-9,84,69,53,30.40,30.19,30.09,10,4,1,21,11,28,0.17,7,Snow,25
2014-1-3,17,5,-7,6,-2,-11,82,70,58,30.50,30.36,30.07,10,10,4,24,10,33,0.00,2,,184
2014-1-4,32,25,17,27,18,7,92,74,55,30.05,29.98,29.92,10,7,1,28,14,38,0.16,4,Snow,207
2014-1-5,30,23,16,28,23,12,92,88,84,30.01,29.89,29.77,2,1,0,30,12,38,0.53,8,Fog-Snow,355
2014-1-6,16,1,-14,10,-10,-22,87,73,58,30.28,30.07,29.84,10,2,0,31,19,37,0.01,7,Snow,258
2014-1-7,1,-6,-13,-6,-15,-19,79,69,58,30.38,30.30,30.18,10,8,2,23,13,28,T,2,,225
2014-1-8,18,6,-7,6,-3,-12,87,72,56,30.56,30.43,30.30,10,9,2,7,2,9,0.00,1,,223
2014-1-9,25,10,-6,20,4,-11,84,79,73,30.58,30.43,30.22,8,3,0,15,6,20,0.05,5,Fog-Snow,126
2014-1-10,43,34,25,40,31,21,100,93,85,30.22,30.02,29.61,10,2,0,18,10,24,0.81,8,Fog-Rain-Snow,166
2014-1-11,42,38,33,40,34,27,100,88,75,29.76,29.53,29.41,10,5,0,21,12,26,0.12,8,Fog-Rain-Snow,253
2014-1-12,42,36,29,29,26,24,85,73,60,29.96,29.82,29.72,10,9,7,22,14,29,0.00,5,,216
2014-1-13,45,39,33,34,31,25,79,68,57,29.77,29.65,29.58,10,10,10,21,12,25,0.00,2,,233
2014-1-14,39,30,21,25,21,16,92,70,48,29.83,29.75,29.65,10,7,2,27,12,40,0.03,6,Snow,224
2014-1-15,23,19,15,16,12,8,81,72,62,30.07,29.96,29.82,10,6,0,17,13,22,0.01,7,Snow,262
2014-1-16,32,24,16,27,20,9,88,78,67,29.94,29.68,29.55,10,5,0,21,15,29,0.08,8,Fog-Snow,201
2014-1-17,27,21,14,16,11,6,84,76,67,29.99,29.86,29.70,10,6,1,16,9,20,0.01,8,Snow,245
2014-1-18,20,15,9,16,11,7,84,76,67,29.97,29.88,29.79,10,5,0,16,9,20,0.12,7,Fog-Snow,154
2014-1-19,35,24,12,26,17,8,88,78,68,29.86,29.74,29.55,10,8,2,32,16,41,0.00,3,Snow,231
2014-1-20,38,28,17,28,23,11,85,78,70,30.03,29.83,29.55,10,10,10,22,10,26,0.00,8,,340
2014-1-21,17,13,8,9,-2,-6,74,58,42,30.27,30.19,30.00,10,10,8,22,9,30,T,5,Snow,41
2014-1-22,14,9,3,9,3,-5,83,71,58,30.21,30.03,29.90,10,4,1,26,11,31,0.05,8,Snow,227
2014-1-23,14,8,2,9,3,-5,84,77,70,30.57,30.33,30.02,10,2,0,22,15,29,0.16,7,Fog-Snow,259
2014-1-24,21,7,-8,16,1,-14,84,70,56,30.56,30.08,29.54,10,6,0,33,20,43,0.06,5,Fog-Snow,217
2014-1-25,30,21,12,25,13,1,88,73,57,29.85,29.56,29.37,10,4,0,31,20,40,0.20,7,Snow,284
2014-1-26,31,19,6,23,9,-3,88,75,61,29.84,29.58,29.43,10,5,0,31,15,43,0.22,7,Fog-Snow,211
2014-1-27,19,6,-8,7,0,-14,87,69,51,30.43,30.02,29.61,10,1,0,35,17,45,0.01,7,Fog-Snow,278
2014-1-28,2,-6,-14,-11,-15,-20,79,65,51,30.48,30.40,30.30,10,10,2,16,10,21,0.00,1,,226
2014-1-29,18,6,-6,4,-4,-12,79,63,46,30.29,30.23,30.13,10,10,10,18,12,25,0.00,0,,219
2014-1-30,33,24,15,25,13,2,78,64,50,30.12,29.91,29.75,10,9,2,30,18,39,T,4,Snow,209
2014-1-31,33,29,25,27,21,17,88,78,68,30.16,30.07,29.88,10,8,1,17,6,23,0.07,7,Snow,310